WXM80 ListenWXM80 Stop

You find our weather info also at:

UK Metoffice

WeatherCloud

Weather Underground

Northeastern Weather Network

AWEKAS

Citizen Weather Observer Program (CWOP)

HAMweather, WeatherForYou, PWS Weather


Weather Underground History page Text

Daily Summary for March 16, 2016 Units:  English    Metric   Both
« Previous Day
Next Day »
Daily Weekly Monthly Yearly Custom
  High: Low: Average:
Temperature: 61.4 °F 40.6 °F 50.4 °F
Dew Point: 49.9 °F 38.9 °F 45 °F
Humidity: 96 % 64 % 82 %
Wind Speed: 7.2 mph 0.0 mph 1.7 mph
Wind Gust: 11.5 mph - -
Wind:- - ESE
Pressure: 29.85 in 29.72 in -
Precipitation: 0.10 in    
Historical Graphs
 
 
Tabular Data for March 16, 2016
Time Temperature Dew Point Pressure Wind Wind Speed Wind Gust Humidity Rainfall Rate (Hourly)
00:02 47.1 °F 43.7 °F 29.80 in Calm   1.2 mph 88 % 0.00 in
00:07 47.2 °F 43.5 °F 29.80 in Calm     87 % 0.00 in
00:12 47.2 °F 43.8 °F 29.80 in Calm     88 % 0.00 in
00:17 47.2 °F 43.8 °F 29.80 in Calm   1.2 mph 88 % 0.00 in
00:22 47.2 °F 43.8 °F 29.80 in North 0.2 mph 1.2 mph 88 % 0.00 in
00:27 47.3 °F 43.9 °F 29.80 in North 0.1 mph 1.2 mph 88 % 0.00 in
00:33 47.3 °F 43.9 °F 29.80 in North 0.7 mph 2.3 mph 88 % 0.00 in
00:38 47.3 °F 43.9 °F 29.80 in North 0.3 mph 2.3 mph 88 % 0.00 in
00:43 47.3 °F 43.9 °F 29.79 in North 1.0 mph 2.3 mph 88 % 0.00 in
00:48 47.3 °F 43.9 °F 29.79 in North 1.4 mph 3.5 mph 88 % 0.00 in
00:53 47.3 °F 43.9 °F 29.79 in NE 0.9 mph 3.0 mph 88 % 0.00 in
00:58 47.3 °F 43.9 °F 29.79 in NE 1.7 mph 3.5 mph 88 % 0.00 in
01:03 47.3 °F 43.6 °F 29.79 in Calm     87 % 0.00 in
01:08 47.2 °F 43.5 °F 29.80 in Calm     87 % 0.00 in
01:13 47.2 °F 43.5 °F 29.80 in NE 0.2 mph   87 % 0.00 in
01:18 47.1 °F 43.4 °F 29.80 in Calm     87 % 0.00 in
01:24 47.1 °F 43.4 °F 29.80 in NE 0.1 mph 1.2 mph 87 % 0.00 in
01:29 47.0 °F 43.6 °F 29.80 in Calm     88 % 0.00 in
01:34 47.0 °F 43.6 °F 29.80 in Calm     88 % 0.00 in
01:39 47.0 °F 43.6 °F 29.80 in Calm     88 % 0.00 in
01:44 46.9 °F 43.5 °F 29.80 in Calm     88 % 0.00 in
01:49 46.9 °F 43.5 °F 29.80 in Calm     88 % 0.00 in
01:54 46.9 °F 43.5 °F 29.80 in Calm     88 % 0.00 in
01:59 46.8 °F 43.4 °F 29.80 in Calm     88 % 0.00 in
02:04 46.8 °F 43.7 °F 29.80 in Calm     89 % 0.00 in
02:09 46.8 °F 43.7 °F 29.80 in Calm     89 % 0.00 in
02:15 46.8 °F 43.7 °F 29.80 in Calm     89 % 0.00 in
02:20 46.7 °F 43.6 °F 29.79 in Calm     89 % 0.00 in
02:25 46.7 °F 43.6 °F 29.79 in Calm     89 % 0.00 in
02:30 46.6 °F 43.5 °F 29.79 in Calm     89 % 0.00 in
02:35 46.5 °F 43.4 °F 29.79 in Calm     89 % 0.00 in
02:45 46.3 °F 43.2 °F 29.79 in Calm     89 % 0.00 in
02:50 46.2 °F 43.1 °F 29.79 in Calm     89 % 0.00 in
02:55 46.1 °F 43.0 °F 29.79 in Calm     89 % 0.00 in
03:00 45.9 °F 42.8 °F 29.79 in Calm     89 % 0.00 in
03:06 45.8 °F 42.7 °F 29.79 in Calm     89 % 0.00 in
03:11 45.6 °F 42.5 °F 29.79 in Calm     89 % 0.00 in
03:16 45.5 °F 42.4 °F 29.78 in Calm     89 % 0.00 in
03:21 45.3 °F 42.2 °F 29.78 in Calm     89 % 0.00 in
03:26 45.1 °F 42.1 °F 29.79 in Calm     89 % 0.00 in
03:31 44.9 °F 41.6 °F 29.79 in Calm     88 % 0.00 in
03:36 44.7 °F 41.7 °F 29.78 in Calm     89 % 0.00 in
03:41 44.5 °F 41.5 °F 29.78 in Calm     89 % 0.00 in
03:46 44.3 °F 41.3 °F 29.78 in Calm     89 % 0.00 in
03:52 44.1 °F 41.1 °F 29.78 in Calm     89 % 0.00 in
03:57 44.0 °F 41.0 °F 29.78 in Calm   1.0 mph 89 % 0.00 in
04:02 43.8 °F 40.8 °F 29.78 in Calm     89 % 0.00 in
04:07 43.6 °F 40.9 °F 29.78 in Calm     90 % 0.00 in
04:12 43.4 °F 40.7 °F 29.79 in Calm     90 % 0.00 in
04:17 43.2 °F 40.2 °F 29.79 in Calm     89 % 0.00 in
04:22 43.1 °F 40.4 °F 29.80 in Calm     90 % 0.00 in
04:27 42.9 °F 40.2 °F 29.80 in Calm     90 % 0.00 in
04:32 42.8 °F 40.1 °F 29.80 in Calm     90 % 0.00 in
04:37 42.6 °F 39.9 °F 29.80 in Calm     90 % 0.00 in
04:43 42.5 °F 39.8 °F 29.80 in Calm     90 % 0.00 in
04:48 42.3 °F 39.9 °F 29.80 in Calm     91 % 0.00 in
04:53 42.2 °F 39.8 °F 29.80 in Calm     91 % 0.00 in
04:58 42.1 °F 39.7 °F 29.80 in Calm     91 % 0.00 in
05:03 42.0 °F 39.6 °F 29.80 in Calm     91 % 0.00 in
05:08 41.8 °F 39.4 °F 29.80 in Calm     91 % 0.00 in
05:13 41.7 °F 39.5 °F 29.80 in NE 0.5 mph 1.2 mph 92 % 0.00 in
05:18 41.6 °F 39.4 °F 29.80 in NE 0.1 mph 1.2 mph 92 % 0.00 in
05:23 41.5 °F 39.3 °F 29.80 in Calm     92 % 0.00 in
05:34 41.4 °F 39.3 °F 29.80 in Calm     92 % 0.00 in
05:39 41.3 °F 39.2 °F 29.81 in Calm     92 % 0.00 in
05:49 41.2 °F 39.3 °F 29.81 in Calm     93 % 0.00 in
05:54 41.1 °F 39.2 °F 29.81 in Calm     93 % 0.00 in
05:59 41.1 °F 39.2 °F 29.81 in Calm     93 % 0.00 in
06:04 41.0 °F 39.1 °F 29.81 in Calm     93 % 0.00 in
06:09 40.9 °F 39.0 °F 29.81 in Calm     93 % 0.00 in
06:14 40.9 °F 39.0 °F 29.81 in Calm     93 % 0.00 in
06:19 40.8 °F 38.9 °F 29.82 in NE 0.4 mph 1.2 mph 93 % 0.00 in
06:25 40.7 °F 39.1 °F 29.83 in NE 1.2 mph 2.3 mph 94 % 0.00 in
06:30 40.6 °F 39.0 °F 29.83 in NE 1.2 mph 2.3 mph 94 % 0.00 in
06:35 40.6 °F 39.0 °F 29.83 in NE 0.6 mph 1.2 mph 94 % 0.00 in
06:40 40.6 °F 39.0 °F 29.83 in Calm     94 % 0.00 in
06:45 40.6 °F 39.0 °F 29.83 in Calm     94 % 0.00 in
06:50 40.6 °F 39.0 °F 29.83 in Calm     94 % 0.00 in
06:55 40.6 °F 39.0 °F 29.83 in Calm     94 % 0.00 in
07:00 40.7 °F 39.1 °F 29.83 in Calm     94 % 0.00 in
07:10 40.7 °F 39.4 °F 29.83 in NE 0.4 mph 2.3 mph 95 % 0.00 in
07:16 40.8 °F 39.5 °F 29.83 in NE 0.3 mph 1.2 mph 95 % 0.00 in
07:21 40.8 °F 39.5 °F 29.83 in Calm   1.2 mph 95 % 0.00 in
07:26 40.9 °F 39.6 °F 29.84 in NE 0.9 mph 2.3 mph 95 % 0.00 in
07:31 41.0 °F 39.7 °F 29.84 in Calm     95 % 0.00 in
07:36 41.2 °F 39.9 °F 29.84 in NE 0.5 mph 1.2 mph 95 % 0.00 in
07:41 41.4 °F 40.1 °F 29.84 in Calm     95 % 0.00 in
07:46 41.8 °F 40.7 °F 29.84 in Calm     96 % 0.00 in
07:51 42.1 °F 41.0 °F 29.84 in Calm     96 % 0.00 in
07:56 42.5 °F 41.4 °F 29.84 in NE 0.1 mph   96 % 0.00 in
08:01 42.9 °F 41.8 °F 29.84 in Calm     96 % 0.00 in
08:07 43.3 °F 42.2 °F 29.84 in Calm     96 % 0.00 in
08:12 43.8 °F 42.7 °F 29.84 in Calm     96 % 0.00 in
08:17 44.4 °F 43.3 °F 29.84 in NE 0.1 mph 1.0 mph 96 % 0.00 in
08:22 44.9 °F 43.8 °F 29.84 in NE 0.8 mph 2.3 mph 96 % 0.00 in
08:27 45.2 °F 44.1 °F 29.84 in NE 0.4 mph 2.3 mph 96 % 0.00 in
08:32 46.0 °F 44.9 °F 29.84 in Calm     96 % 0.00 in
08:37 46.5 °F 45.4 °F 29.84 in Calm     96 % 0.00 in
08:42 47.2 °F 45.8 °F 29.84 in NE 0.6 mph 2.3 mph 95 % 0.00 in
08:47 47.9 °F 45.4 °F 29.84 in NE 0.9 mph 3.5 mph 91 % 0.00 in
08:52 48.6 °F 44.9 °F 29.84 in NE 0.5 mph 2.0 mph 87 % 0.00 in
08:58 49.2 °F 44.9 °F 29.84 in NE 0.1 mph 1.2 mph 85 % 0.00 in
09:03 49.6 °F 44.3 °F 29.84 in NE 1.4 mph 2.3 mph 82 % 0.00 in
09:08 49.8 °F 44.2 °F 29.84 in NE 1.1 mph 2.3 mph 81 % 0.00 in
09:13 50.1 °F 44.2 °F 29.84 in NE 2.0 mph 3.5 mph 80 % 0.00 in
09:18 50.3 °F 44.7 °F 29.84 in NE 1.9 mph 3.5 mph 81 % 0.00 in
09:23 50.6 °F 45.0 °F 29.84 in ENE 1.8 mph 4.0 mph 81 % 0.00 in
09:28 50.6 °F 44.3 °F 29.85 in NE 1.4 mph 3.5 mph 79 % 0.00 in
09:33 50.6 °F 44.3 °F 29.84 in ENE 3.5 mph 4.6 mph 79 % 0.00 in
09:38 50.2 °F 44.3 °F 29.85 in ENE 2.5 mph 3.5 mph 80 % 0.00 in
09:43 49.7 °F 44.1 °F 29.85 in ENE 3.4 mph 3.5 mph 81 % 0.00 in
09:49 49.3 °F 44.0 °F 29.85 in NE 4.0 mph 5.0 mph 82 % 0.00 in
09:54 49.1 °F 44.2 °F 29.85 in ENE 4.2 mph 6.9 mph 83 % 0.00 in
09:59 49.1 °F 44.2 °F 29.85 in ENE 2.8 mph 5.0 mph 83 % 0.00 in
10:04 49.2 °F 43.9 °F 29.84 in NE 3.7 mph 4.6 mph 82 % 0.00 in
10:09 49.5 °F 44.2 °F 29.84 in ENE 3.1 mph 5.0 mph 82 % 0.00 in
10:14 49.5 °F 44.2 °F 29.84 in ENE 1.6 mph 3.5 mph 82 % 0.00 in
10:19 49.7 °F 44.4 °F 29.85 in ENE 2.2 mph 4.0 mph 82 % 0.00 in
10:29 50.2 °F 44.6 °F 29.84 in ENE 3.1 mph 5.0 mph 81 % 0.00 in
10:40 51.5 °F 45.5 °F 29.84 in NE 2.0 mph 3.5 mph 80 % 0.00 in
10:45 52.0 °F 45.7 °F 29.84 in ENE 2.2 mph 3.5 mph 79 % 0.00 in
10:50 52.4 °F 46.1 °F 29.84 in ENE 1.7 mph 3.5 mph 79 % 0.00 in
10:55 52.7 °F 46.0 °F 29.84 in ENE 2.3 mph 3.5 mph 78 % 0.00 in
11:00 52.7 °F 45.3 °F 29.84 in ENE 1.4 mph 3.5 mph 76 % 0.00 in
11:05 52.6 °F 45.2 °F 29.83 in ENE 2.2 mph 3.5 mph 76 % 0.00 in
11:10 53.0 °F 46.7 °F 29.84 in NE 1.9 mph 3.5 mph 79 % 0.00 in
11:15 53.8 °F 47.4 °F 29.84 in NE 0.4 mph 2.3 mph 79 % 0.00 in
11:20 54.3 °F 47.6 °F 29.83 in NE 1.2 mph 2.3 mph 78 % 0.00 in
11:31 54.8 °F 47.0 °F 29.83 in NE 1.9 mph 3.5 mph 75 % 0.00 in
11:36 54.8 °F 47.4 °F 29.83 in NE 0.8 mph 2.3 mph 76 % 0.00 in
11:41 55.3 °F 48.9 °F 29.83 in NNE 2.2 mph 3.5 mph 79 % 0.00 in
11:46 56.7 °F 49.9 °F 29.83 in NE 0.5 mph 1.2 mph 78 % 0.00 in
11:51 57.9 °F 49.7 °F 29.83 in NE 0.8 mph 2.3 mph 74 % 0.00 in
11:56 58.5 °F 49.5 °F 29.83 in NE 2.1 mph 3.5 mph 72 % 0.00 in
12:01 58.5 °F 48.7 °F 29.83 in ENE 3.1 mph 4.0 mph 70 % 0.00 in
12:06 58.0 °F 47.1 °F 29.83 in ENE 2.9 mph 4.6 mph 67 % 0.00 in
12:11 57.2 °F 46.7 °F 29.83 in NNE 2.1 mph 3.5 mph 68 % 0.00 in
12:16 57.1 °F 47.8 °F 29.83 in NNE 3.2 mph 4.0 mph 71 % 0.00 in
12:22 56.9 °F 46.8 °F 29.83 in NE 2.9 mph 6.9 mph 69 % 0.00 in
12:27 56.4 °F 47.5 °F 29.82 in NE 4.5 mph 6.9 mph 72 % 0.00 in
12:37 56.2 °F 47.7 °F 29.83 in ENE 1.5 mph 3.0 mph 73 % 0.00 in
12:42 56.6 °F 48.0 °F 29.82 in ENE 3.3 mph 5.0 mph 73 % 0.00 in
12:47 56.5 °F 47.9 °F 29.82 in ENE 3.6 mph 6.0 mph 73 % 0.00 in
12:52 56.4 °F 47.9 °F 29.82 in ENE 3.1 mph 7.0 mph 73 % 0.00 in
12:57 56.7 °F 48.1 °F 29.82 in ENE 3.8 mph 4.6 mph 73 % 0.00 in
13:02 57.2 °F 48.3 °F 29.82 in ENE 2.0 mph 4.6 mph 72 % 0.00 in
13:07 57.6 °F 49.0 °F 29.82 in East 3.3 mph 5.0 mph 73 % 0.00 in
13:13 58.1 °F 48.7 °F 29.81 in NE 2.7 mph 4.6 mph 71 % 0.00 in
13:18 58.4 °F 48.3 °F 29.81 in NE 3.3 mph 5.8 mph 69 % 0.00 in
13:23 58.5 °F 48.0 °F 29.81 in ENE 3.7 mph 4.6 mph 68 % 0.00 in
13:28 58.4 °F 47.9 °F 29.80 in ENE 5.0 mph 8.1 mph 68 % 0.00 in
13:33 58.4 °F 47.9 °F 29.80 in ENE 5.6 mph 8.1 mph 68 % 0.00 in
13:38 58.5 °F 48.0 °F 29.80 in East 3.9 mph 6.9 mph 68 % 0.00 in
13:43 58.4 °F 47.5 °F 29.79 in ENE 3.4 mph 6.9 mph 67 % 0.00 in
13:48 58.7 °F 48.6 °F 29.79 in East 5.0 mph 6.9 mph 69 % 0.00 in
13:53 59.1 °F 48.9 °F 29.79 in East 5.7 mph 6.9 mph 69 % 0.00 in
13:58 59.5 °F 48.5 °F 29.79 in ENE 3.2 mph 4.6 mph 67 % 0.00 in
14:04 59.6 °F 49.0 °F 29.79 in ENE 2.3 mph 4.6 mph 68 % 0.00 in
14:09 59.8 °F 48.4 °F 29.79 in ENE 2.8 mph 4.0 mph 66 % 0.00 in
14:14 60.0 °F 49.0 °F 29.79 in NE 1.9 mph 4.0 mph 67 % 0.00 in
14:19 60.4 °F 49.4 °F 29.78 in ENE 3.1 mph 5.0 mph 67 % 0.00 in
14:24 60.5 °F 48.7 °F 29.78 in NNE 4.9 mph 6.9 mph 65 % 0.00 in
14:34 60.3 °F 48.9 °F 29.77 in ENE 3.1 mph 5.0 mph 66 % 0.00 in
14:39 60.4 °F 49.4 °F 29.77 in NE 3.6 mph 5.0 mph 67 % 0.00 in
14:44 60.4 °F 48.6 °F 29.77 in NE 3.6 mph 5.0 mph 65 % 0.00 in
14:49 60.2 °F 48.8 °F 29.77 in NE 3.4 mph 4.6 mph 66 % 0.00 in
14:55 59.7 °F 48.3 °F 29.76 in ENE 3.1 mph 6.9 mph 66 % 0.00 in
15:00 59.6 °F 48.6 °F 29.76 in East 2.9 mph 3.5 mph 67 % 0.00 in
15:05 59.4 °F 48.0 °F 29.76 in NE 6.5 mph 8.1 mph 66 % 0.00 in
15:10 59.3 °F 48.3 °F 29.76 in ENE 3.5 mph 5.0 mph 67 % 0.00 in
15:15 59.0 °F 47.7 °F 29.75 in ENE 5.1 mph 8.0 mph 66 % 0.00 in
15:20 58.7 °F 47.8 °F 29.75 in ENE 4.1 mph 6.0 mph 67 % 0.00 in
15:25 58.7 °F 47.8 °F 29.75 in NE 5.0 mph 8.1 mph 67 % 0.00 in
15:30 58.8 °F 47.9 °F 29.75 in ENE 3.8 mph 5.0 mph 67 % 0.00 in
15:35 58.7 °F 48.2 °F 29.75 in ENE 2.9 mph 4.6 mph 68 % 0.00 in
15:40 59.1 °F 49.3 °F 29.75 in East 2.3 mph 5.0 mph 70 % 0.00 in
15:46 59.9 °F 49.3 °F 29.75 in ENE 4.4 mph 7.0 mph 68 % 0.00 in
15:51 60.5 °F 49.5 °F 29.75 in ENE 5.2 mph 7.0 mph 67 % 0.00 in
15:56 60.8 °F 49.4 °F 29.75 in ENE 4.9 mph 8.1 mph 66 % 0.00 in
16:01 60.6 °F 48.4 °F 29.74 in ENE 7.2 mph 9.2 mph 64 % 0.00 in
16:06 59.9 °F 48.1 °F 29.75 in NE 3.6 mph 8.1 mph 65 % 0.00 in
16:11 59.4 °F 48.0 °F 29.75 in NE 3.2 mph 6.9 mph 66 % 0.00 in
16:21 59.2 °F 48.6 °F 29.75 in Calm   1.2 mph 68 % 0.00 in
16:26 59.5 °F 49.7 °F 29.74 in SE 0.9 mph 3.5 mph 70 % 0.00 in
16:32 60.1 °F 49.9 °F 29.74 in South 4.4 mph 5.0 mph 69 % 0.00 in
16:37 60.7 °F 49.7 °F 29.74 in South 2.6 mph 5.0 mph 67 % 0.00 in
16:42 61.1 °F 49.7 °F 29.74 in SW 2.8 mph 6.9 mph 66 % 0.00 in
16:47 61.3 °F 49.8 °F 29.73 in SSE 3.8 mph 5.8 mph 66 % 0.00 in
16:52 61.4 °F 49.5 °F 29.73 in SE 5.3 mph 8.1 mph 65 % 0.00 in
16:57 61.4 °F 49.5 °F 29.72 in South 2.7 mph 5.8 mph 65 % 0.00 in
17:02 61.3 °F 49.0 °F 29.73 in SE 5.5 mph 6.9 mph 64 % 0.00 in
17:07 61.1 °F 48.8 °F 29.72 in South 3.7 mph 9.2 mph 64 % 0.00 in
17:12 60.9 °F 49.1 °F 29.72 in SSE 3.2 mph 5.8 mph 65 % 0.00 in
17:17 60.8 °F 48.5 °F 29.73 in SSE 3.9 mph 8.1 mph 64 % 0.00 in
17:23 60.5 °F 48.7 °F 29.73 in SSE 4.2 mph 10.4 mph 65 % 0.00 in
17:28 60.2 °F 48.4 °F 29.73 in SSE 6.9 mph 11.5 mph 65 % 0.00 in
17:33 60.0 °F 48.6 °F 29.74 in South 0.7 mph 3.5 mph 66 % 0.00 in
17:38 59.8 °F 48.4 °F 29.74 in South 2.7 mph 5.0 mph 66 % 0.00 in
17:43 59.6 °F 48.2 °F 29.74 in South 5.4 mph 6.9 mph 66 % 0.00 in
17:48 59.4 °F 48.4 °F 29.75 in South 2.3 mph 6.0 mph 67 % 0.00 in
17:53 59.2 °F 48.2 °F 29.75 in SSW 2.0 mph 5.8 mph 67 % 0.00 in
17:58 58.9 °F 48.0 °F 29.76 in South 6.2 mph 11.5 mph 67 % 0.00 in
18:03 58.5 °F 47.6 °F 29.75 in South 2.5 mph 5.8 mph 67 % 0.00 in
18:08 58.0 °F 47.5 °F 29.76 in SSW 1.2 mph 8.1 mph 68 % 0.00 in
18:14 57.5 °F 47.4 °F 29.76 in SSE 1.1 mph 5.8 mph 69 % 0.00 in
18:19 57.0 °F 47.3 °F 29.76 in SSE 4.4 mph 9.0 mph 70 % 0.00 in
18:24 56.6 °F 47.3 °F 29.76 in South 4.2 mph 7.0 mph 71 % 0.00 in
18:29 56.2 °F 46.9 °F 29.76 in SSE 4.2 mph 9.2 mph 71 % 0.00 in
18:34 55.7 °F 46.8 °F 29.77 in South 4.9 mph 10.4 mph 72 % 0.00 in
18:39 55.2 °F 46.7 °F 29.79 in South 4.7 mph 6.9 mph 73 % 0.00 in
18:49 54.5 °F 46.4 °F 29.80 in South 3.3 mph 6.9 mph 74 % 0.00 in
18:54 54.3 °F 46.2 °F 29.82 in SSW 1.8 mph 4.6 mph 74 % 0.00 in
18:59 54.1 °F 46.3 °F 29.83 in SW 3.4 mph 4.0 mph 75 % 0.00 in
19:05 53.9 °F 46.5 °F 29.81 in South 3.2 mph 5.8 mph 76 % 0.00 in
19:10 53.6 °F 46.2 °F 29.81 in SSE 2.6 mph 5.8 mph 76 % 0.00 in
19:15 53.1 °F 46.4 °F 29.80 in SSE 2.9 mph 10.4 mph 78 % 0.00 in
19:20 52.6 °F 46.9 °F 29.80 in SE 1.1 mph 6.9 mph 81 % 0.00 in
19:25 52.4 °F 47.7 °F 29.79 in SE 2.1 mph 4.6 mph 84 % 0.01 in
19:30 52.0 °F 47.3 °F 29.79 in SSE 0.1 mph 1.2 mph 84 % 0.01 in
19:35 51.6 °F 47.2 °F 29.79 in SSE 1.5 mph 3.5 mph 85 % 0.01 in
19:40 51.2 °F 46.8 °F 29.80 in SSE 0.5 mph 2.3 mph 85 % 0.02 in
19:45 51.0 °F 47.0 °F 29.80 in SE 2.2 mph 3.5 mph 86 % 0.03 in
19:50 50.6 °F 46.9 °F 29.82 in SSE 0.7 mph 2.3 mph 87 % 0.03 in
19:56 50.4 °F 46.7 °F 29.83 in WSW 1.5 mph 4.0 mph 87 % 0.04 in
20:01 50.2 °F 46.8 °F 29.83 in SSW 0.5 mph 6.9 mph 88 % 0.04 in
20:06 50.1 °F 46.7 °F 29.83 in Calm   1.2 mph 88 % 0.05 in
20:11 50.0 °F 46.9 °F 29.83 in SSW 0.5 mph 1.2 mph 89 % 0.07 in
20:16 49.8 °F 47.0 °F 29.83 in South 1.1 mph 2.3 mph 90 % 0.08 in
20:21 49.7 °F 46.9 °F 29.83 in SE 0.6 mph 2.3 mph 90 % 0.09 in
20:26 49.6 °F 46.8 °F 29.84 in SE 1.9 mph 3.5 mph 90 % 0.09 in
20:31 49.4 °F 46.9 °F 29.83 in South 0.4 mph 2.0 mph 91 % 0.09 in
20:36 49.1 °F 46.6 °F 29.83 in South 1.0 mph 4.6 mph 91 % 0.09 in
20:47 48.8 °F 46.3 °F 29.82 in SSE 3.1 mph 5.8 mph 91 % 0.07 in
20:52 48.7 °F 46.2 °F 29.82 in South 1.6 mph 4.6 mph 91 % 0.07 in
20:57 48.6 °F 46.1 °F 29.82 in SSE 3.8 mph 8.1 mph 91 % 0.06 in
21:02 48.5 °F 46.3 °F 29.82 in SSE 5.5 mph 9.2 mph 92 % 0.06 in
21:07 48.5 °F 46.3 °F 29.82 in SE 2.8 mph 7.0 mph 92 % 0.05 in
21:12 48.4 °F 46.2 °F 29.82 in SSE 2.5 mph 6.9 mph 92 % 0.03 in
21:17 48.3 °F 46.1 °F 29.82 in SE 1.0 mph 3.5 mph 92 % 0.02 in
21:22 48.2 °F 46.0 °F 29.82 in SSE 2.4 mph 9.2 mph 92 % 0.01 in
21:32 48.1 °F 45.6 °F 29.82 in SE 2.6 mph 8.1 mph 91 % 0.00 in
21:38 48.0 °F 45.5 °F 29.82 in SSE 4.2 mph 5.8 mph 91 % 0.00 in
21:43 48.0 °F 45.5 °F 29.82 in SSE 5.1 mph 5.1 mph 91 % 0.00 in
21:48 48.0 °F 45.5 °F 29.83 in SE 1.7 mph 4.6 mph 91 % 0.00 in
21:53 48.0 °F 45.5 °F 29.83 in ESE 1.0 mph 4.6 mph 91 % 0.00 in
21:58 48.0 °F 45.5 °F 29.82 in Calm   1.2 mph 91 % 0.00 in
22:03 48.0 °F 45.5 °F 29.82 in SE 4.7 mph 6.9 mph 91 % 0.00 in
22:08 47.9 °F 45.4 °F 29.82 in SE 1.3 mph 3.5 mph 91 % 0.00 in
22:13 48.0 °F 45.5 °F 29.83 in SE 0.8 mph 5.8 mph 91 % 0.00 in
22:18 47.9 °F 45.4 °F 29.84 in SSE 0.5 mph 3.5 mph 91 % 0.00 in
22:23 47.9 °F 45.1 °F 29.83 in SE 0.3 mph 2.3 mph 90 % 0.00 in
22:29 47.8 °F 45.0 °F 29.83 in SSE 2.5 mph 6.9 mph 90 % 0.00 in
22:34 47.8 °F 45.0 °F 29.82 in SE 1.3 mph 4.6 mph 90 % 0.00 in
22:39 47.8 °F 45.0 °F 29.82 in SSE 0.6 mph 3.5 mph 90 % 0.00 in
22:44 47.8 °F 45.0 °F 29.82 in SSE 0.4 mph 1.2 mph 90 % 0.00 in
22:54 47.7 °F 45.2 °F 29.82 in SSE 0.7 mph 1.2 mph 91 % 0.00 in
22:59 47.7 °F 44.9 °F 29.83 in East 0.6 mph 3.0 mph 90 % 0.00 in
23:04 47.6 °F 44.8 °F 29.84 in SE 0.3 mph 2.3 mph 90 % 0.00 in
23:09 47.6 °F 44.8 °F 29.85 in Calm   1.2 mph 90 % 0.00 in
23:14 47.6 °F 44.8 °F 29.85 in Calm     90 % 0.00 in
23:20 47.6 °F 44.8 °F 29.85 in Calm     90 % 0.00 in
23:25 47.6 °F 44.8 °F 29.85 in Calm     90 % 0.00 in
23:30 47.6 °F 44.8 °F 29.84 in SE 0.1 mph 1.2 mph 90 % 0.00 in
23:35 47.6 °F 45.1 °F 29.84 in SE 0.2 mph 1.2 mph 91 % 0.00 in
23:40 47.6 °F 45.1 °F 29.83 in SE 1.7 mph 2.3 mph 91 % 0.00 in
23:45 47.5 °F 44.7 °F 29.84 in SE 0.1 mph 1.2 mph 90 % 0.00 in
23:50 47.4 °F 44.6 °F 29.83 in SE 0.5 mph 1.2 mph 90 % 0.00 in
23:55 47.3 °F 44.5 °F 29.84 in SE 0.5 mph 1.2 mph 90 % 0.00 in
Crab Meadow Weather
Compliments of Weather Underground - 2.75 mb

Script developed by  Jim McMurry - jmcmurry@mwt.net Adapted for the template by  Wim van der Kuil - Leuven-Template.eu

Weather Terms: Wind Advisory - Sustained winds of 30 mph or greater or gusts to 45 mph or greater for a duration of one hour or longer.